Location: Del Oro Observatory
(38.3044°N, 104.8119°W)
Time: 18:35:08
(UTC-06:00)

Iridium 35 - Visible Passes

Search period start: 30 July 2016 00:00
Search period end: 09 August 2016 00:00
Orbit: 776 x 779 km, 86.4° (Epoch: 30 July)

Date Brightness Start Highest point End Pass type
(mag) Time Alt. Az. Time Alt. Az. Time Alt. Az.
30 Jul 5.6 21:41:54 10° NNE 21:46:49 40° E 21:48:44 29° SE visible
30 Jul 7.0 23:23:22 10° NW 23:27:11 21° W 23:29:12 17° WSW visible
31 Jul 6.4 21:09:05 10° NNE 21:13:05 22° ENE 21:15:29 16° ESE visible
31 Jul 6.2 22:49:06 10° NNW 22:53:54 39° W 22:55:58 27° SW visible
01 Aug 7.0 20:37:31 10° NE 20:39:13 11° ENE 20:40:54 10° E visible
01 Aug 5.1 22:15:17 10° N 22:20:30 74° W 22:22:44 35° SSW visible
02 Aug 5.1 21:41:49 10° N 21:46:59 59° E 21:49:32 29° SSE visible
02 Aug 7.5 23:24:23 10° NW 23:27:06 14° WNW 23:29:49 10° WSW visible
03 Aug 5.9 21:08:42 10° NNE 21:13:19 31° E 21:16:21 18° SE visible
03 Aug 6.8 22:49:34 10° NNW 22:53:53 27° W 22:56:50 16° SW visible
04 Aug 6.6 20:36:11 10° NE 20:39:33 17° ENE 20:42:54 10° ESE visible
04 Aug 5.8 22:15:31 10° NNW 22:20:33 50° W 22:23:40 22° SSW visible
05 Aug 4.9 21:41:51 10° N 21:47:06 86° E 21:50:31 22° S visible
06 Aug 5.4 21:08:30 10° N 21:13:32 45° E 21:17:24 16° SSE visible
06 Aug 7.4 22:50:18 10° NW 22:53:49 19° W 22:57:19 10° WSW visible
07 Aug 6.2 20:35:35 10° NNE 20:39:49 25° E 20:44:03 10° SE visible
07 Aug 6.5 22:15:53 10° NNW 22:20:33 34° W 22:24:49 12° SW visible
08 Aug 5.4 21:42:00 10° N 21:47:11 65° W 21:51:45 13° SSW visible
